Time,TemperatureF,DewpointF,PressureIn,WindDirection,WindDirectionDegrees,WindSpeedMPH,WindSpeedGustMPH,Humidity,HourlyPrecipIn,Conditions,Clouds,dailyrainin,SolarRadiationWatts/m^2,SoftwareType,DateUTC
2013-09-28 00:05:00,45.2,42.4,29.87,SSW,196,0.0,0.0,90,0.00,,,0.00,0,Wunderground v.1.15,2013-09-28 07:05:00,
2013-09-28 00:15:00,45.1,42.3,29.86,SSW,196,0.0,0.0,90,0.00,,,0.00,0,Wunderground v.1.15,2013-09-28 07:15:00,
2013-09-28 00:25:00,44.8,42.0,29.86,SSW,196,0.0,0.0,90,0.00,,,0.00,0,Wunderground v.1.15,2013-09-28 07:25:00,
2013-09-28 00:30:00,44.6,41.8,29.86,SSW,196,0.0,0.0,90,0.00,,,0.00,0,Wunderground v.1.15,2013-09-28 07:30:00,
2013-09-28 00:40:00,44.5,41.7,29.85,SSW,196,0.0,0.0,90,0.00,,,0.00,0,Wunderground v.1.15,2013-09-28 07:40:00,
2013-09-28 00:50:00,44.2,41.5,29.85,SSW,196,0.0,0.0,90,0.00,,,0.00,0,Wunderground v.1.15,2013-09-28 07:50:00,
2013-09-28 01:00:00,44.1,41.4,29.85,SSW,196,0.0,0.0,90,0.00,,,0.00,0,Wunderground v.1.15,2013-09-28 08:00:00,
2013-09-28 01:10:00,43.9,41.2,29.84,SSW,196,0.0,0.0,90,0.00,,,0.00,0,Wunderground v.1.15,2013-09-28 08:10:00,
2013-09-28 01:20:00,43.6,40.9,29.84,SSW,196,0.0,0.0,90,0.00,,,0.00,0,Wunderground v.1.15,2013-09-28 08:20:00,
2013-09-28 01:30:00,43.6,40.9,29.84,SSW,196,0.0,0.0,90,0.00,,,0.00,0,Wunderground v.1.15,2013-09-28 08:30:00,
2013-09-28 01:35:00,43.6,41.1,29.83,SSW,196,0.0,0.0,91,0.00,,,0.00,0,Wunderground v.1.15,2013-09-28 08:35:00,
2013-09-28 01:45:00,43.6,41.1,29.83,SSW,196,0.0,0.0,91,0.00,,,0.00,0,Wunderground v.1.15,2013-09-28 08:45:00,
2013-09-28 01:55:00,43.8,41.3,29.84,SSW,196,0.0,0.0,91,0.00,,,0.00,0,Wunderground v.1.15,2013-09-28 08:55:00,
2013-09-28 02:05:00,43.9,41.4,29.84,SSW,196,0.0,0.0,91,0.00,,,0.00,0,Wunderground v.1.15,2013-09-28 09:05:00,
2013-09-28 02:15:00,44.1,41.6,29.84,SSW,196,0.0,0.0,91,0.00,,,0.00,0,Wunderground v.1.15,2013-09-28 09:15:00,
2013-09-28 02:25:00,43.9,41.4,29.83,SSW,196,0.0,0.0,91,0.00,,,0.00,0,Wunderground v.1.15,2013-09-28 09:25:00,
2013-09-28 02:30:00,43.9,41.4,29.83,SSW,196,0.0,0.0,91,0.00,,,0.00,0,Wunderground v.1.15,2013-09-28 09:30:00,
2013-09-28 02:35:00,43.9,41.4,29.83,SSW,196,0.0,0.0,91,0.00,,,0.00,0,Wunderground v.1.15,2013-09-28 09:35:00,
2013-09-28 02:45:00,44.1,41.6,29.82,SSW,196,0.0,0.0,91,0.00,,,0.00,0,Wunderground v.1.15,2013-09-28 09:45:00,
2013-09-28 02:50:00,44.1,41.6,29.82,SSW,196,0.0,0.0,91,0.00,,,0.00,0,Wunderground v.1.15,2013-09-28 09:50:00,
2013-09-28 03:00:00,44.1,41.6,29.82,SSW,196,0.0,0.0,91,0.00,,,0.00,0,Wunderground v.1.15,2013-09-28 10:00:00,
2013-09-28 03:10:00,44.1,41.6,29.81,SSW,196,0.0,0.0,91,0.00,,,0.00,0,Wunderground v.1.15,2013-09-28 10:10:00,
2013-09-28 03:20:00,43.9,41.4,29.80,SSW,196,0.0,0.0,91,0.00,,,0.00,0,Wunderground v.1.15,2013-09-28 10:20:00,
2013-09-28 03:30:00,43.9,41.4,29.80,SSW,196,0.0,0.0,91,0.00,,,0.00,0,Wunderground v.1.15,2013-09-28 10:30:00,
2013-09-28 03:40:00,44.1,41.6,29.79,SSW,196,0.0,0.0,91,0.00,,,0.00,0,Wunderground v.1.15,2013-09-28 10:40:00,
2013-09-28 03:50:00,44.1,41.6,29.79,SSW,196,0.0,0.0,91,0.00,,,0.00,0,Wunderground v.1.15,2013-09-28 10:50:00,
2013-09-28 04:00:00,44.1,41.6,29.79,SSW,196,0.0,0.0,91,0.00,,,0.00,0,Wunderground v.1.15,2013-09-28 11:00:00,
2013-09-28 04:10:00,44.1,41.6,29.79,SSW,196,0.0,0.0,91,0.00,,,0.00,0,Wunderground v.1.15,2013-09-28 11:10:00,
2013-09-28 04:20:00,44.2,41.7,29.79,SSW,196,0.0,0.0,91,0.00,,,0.00,0,Wunderground v.1.15,2013-09-28 11:20:00,
2013-09-28 04:30:00,44.1,41.6,29.78,SSW,196,0.0,0.0,91,0.00,,,0.00,0,Wunderground v.1.15,2013-09-28 11:30:00,
2013-09-28 04:40:00,44.1,41.6,29.78,SSW,196,0.0,0.0,91,0.00,,,0.00,0,Wunderground v.1.15,2013-09-28 11:40:00,
2013-09-28 04:50:00,44.1,41.6,29.78,SSW,196,0.0,0.0,91,0.00,,,0.00,0,Wunderground v.1.15,2013-09-28 11:50:00,
2013-09-28 05:00:00,43.9,41.4,29.77,SSW,196,0.0,0.0,91,0.00,,,0.00,0,Wunderground v.1.15,2013-09-28 12:00:00,
2013-09-28 05:10:00,43.9,41.4,29.78,SSW,196,0.0,0.0,91,0.00,,,0.00,0,Wunderground v.1.15,2013-09-28 12:10:00,
2013-09-28 05:15:00,43.9,41.4,29.78,SSW,196,0.0,0.0,91,0.00,,,0.00,0,Wunderground v.1.15,2013-09-28 12:15:00,
2013-09-28 05:25:00,43.9,41.4,29.78,SSW,196,0.0,0.0,91,0.00,,,0.00,0,Wunderground v.1.15,2013-09-28 12:25:00,
2013-09-28 05:30:00,43.9,41.4,29.78,SSW,196,0.0,0.0,91,0.00,,,0.00,0,Wunderground v.1.15,2013-09-28 12:30:00,
2013-09-28 05:40:00,43.8,41.3,29.78,SSW,196,0.0,0.0,91,0.00,,,0.00,0,Wunderground v.1.15,2013-09-28 12:40:00,
2013-09-28 05:50:00,43.8,41.3,29.78,SSW,196,0.0,0.0,91,0.00,,,0.00,0,Wunderground v.1.15,2013-09-28 12:50:00,
2013-09-28 05:55:00,43.8,41.3,29.77,SSW,196,0.0,0.0,91,0.00,,,0.01,0,Wunderground v.1.15,2013-09-28 12:55:00,
2013-09-28 06:05:00,43.8,41.3,29.77,SSW,196,0.0,0.0,91,0.00,,,0.01,0,Wunderground v.1.15,2013-09-28 13:05:00,
2013-09-28 06:10:00,43.8,41.3,29.77,SSW,196,0.0,0.0,91,0.00,,,0.01,0,Wunderground v.1.15,2013-09-28 13:10:00,
2013-09-28 06:20:00,43.6,41.1,29.77,SSW,196,0.0,0.0,91,0.00,,,0.01,0,Wunderground v.1.15,2013-09-28 13:20:00,
2013-09-28 06:25:00,43.6,41.1,29.77,SSW,196,0.0,0.0,91,0.00,,,0.01,0,Wunderground v.1.15,2013-09-28 13:25:00,
2013-09-28 06:35:00,43.6,41.1,29.76,SSW,196,0.0,0.0,91,0.00,,,0.01,0,Wunderground v.1.15,2013-09-28 13:35:00,
2013-09-28 06:45:00,43.6,41.1,29.76,SSW,196,0.0,0.0,91,0.00,,,0.01,0,Wunderground v.1.15,2013-09-28 13:45:00,
2013-09-28 06:55:00,43.6,41.1,29.76,SSW,196,0.0,0.0,91,0.00,,,0.02,0,Wunderground v.1.15,2013-09-28 13:55:00,
2013-09-28 07:05:00,43.5,41.0,29.77,SSW,196,0.0,0.0,91,0.06,,,0.03,0,Wunderground v.1.15,2013-09-28 14:05:00,
2013-09-28 07:15:00,43.6,41.4,29.76,SSW,196,0.0,0.0,92,0.07,,,0.04,0,Wunderground v.1.15,2013-09-28 14:15:00,
2013-09-28 07:25:00,43.6,41.4,29.76,SSW,196,0.0,1.0,92,0.05,,,0.04,0,Wunderground v.1.15,2013-09-28 14:25:00,
2013-09-28 07:35:00,43.6,41.4,29.75,SSW,196,0.0,0.0,92,0.05,,,0.05,5,Wunderground v.1.15,2013-09-28 14:35:00,
2013-09-28 07:45:00,43.6,41.4,29.75,SSW,196,0.0,0.0,92,0.00,,,0.05,18,Wunderground v.1.15,2013-09-28 14:45:00,
2013-09-28 07:50:00,43.8,41.6,29.75,SSW,196,0.0,0.0,92,0.00,,,0.05,19,Wunderground v.1.15,2013-09-28 14:50:00,
2013-09-28 08:00:00,43.9,41.7,29.75,SSW,196,0.0,0.0,92,0.00,,,0.06,23,Wunderground v.1.15,2013-09-28 15:00:00,
2013-09-28 08:10:00,44.1,41.9,29.74,SSW,196,0.0,0.0,92,0.05,,,0.07,28,Wunderground v.1.15,2013-09-28 15:10:00,
2013-09-28 08:20:00,44.1,41.9,29.74,SSW,196,0.0,0.0,92,0.05,,,0.08,37,Wunderground v.1.15,2013-09-28 15:20:00,
2013-09-28 08:30:00,44.3,42.1,29.73,SSW,196,0.0,0.0,92,0.05,,,0.09,42,Wunderground v.1.15,2013-09-28 15:30:00,
2013-09-28 08:40:00,44.6,42.4,29.72,SSW,196,0.0,0.0,92,0.05,,,0.10,53,Wunderground v.1.15,2013-09-28 15:40:00,
2013-09-28 08:50:00,44.6,42.4,29.72,SSW,196,0.0,0.0,92,0.09,,,0.11,70,Wunderground v.1.15,2013-09-28 15:50:00,
2013-09-28 09:00:00,44.6,42.4,29.72,SSW,192,1.0,1.0,92,0.06,,,0.12,70,Wunderground v.1.15,2013-09-28 16:00:00,
2013-09-28 09:10:00,44.9,42.7,29.71,SSW,192,0.0,0.0,92,0.04,,,0.12,84,Wunderground v.1.15,2013-09-28 16:10:00,
2013-09-28 09:20:00,45.1,42.9,29.70,SSW,192,0.0,1.0,92,0.00,,,0.13,70,Wunderground v.1.15,2013-09-28 16:20:00,
2013-09-28 09:30:00,45.2,43.0,29.70,South,190,1.0,1.0,92,0.00,,,0.13,105,Wunderground v.1.15,2013-09-28 16:30:00,
2013-09-28 09:40:00,45.2,43.0,29.70,SSE,167,0.0,0.0,92,0.00,,,0.14,83,Wunderground v.1.15,2013-09-28 16:40:00,
2013-09-28 09:50:00,45.2,43.0,29.69,SSE,148,0.0,1.0,92,0.00,,,0.14,77,Wunderground v.1.15,2013-09-28 16:50:00,
2013-09-28 10:05:00,45.7,43.5,29.68,SSE,148,0.0,0.0,92,0.00,,,0.15,102,Wunderground v.1.15,2013-09-28 17:05:00,
2013-09-28 10:15:00,46.0,43.8,29.69,SSE,148,0.0,0.0,92,0.00,,,0.15,118,Wunderground v.1.15,2013-09-28 17:15:00,
2013-09-28 10:25:00,46.4,44.2,29.68,SSE,148,0.0,1.0,92,0.00,,,0.16,153,Wunderground v.1.15,2013-09-28 17:25:00,
2013-09-28 10:35:00,46.5,44.3,29.68,SE,144,0.0,0.0,92,0.00,,,0.16,213,Wunderground v.1.15,2013-09-28 17:35:00,
2013-09-28 10:40:00,47.0,44.8,29.67,SE,144,0.0,0.0,92,0.00,,,0.16,246,Wunderground v.1.15,2013-09-28 17:40:00,
2013-09-28 10:50:00,47.4,45.2,29.66,SE,128,1.0,2.0,92,0.00,,,0.16,204,Wunderground v.1.15,2013-09-28 17:50:00,
2013-09-28 11:00:00,47.6,45.1,29.65,SE,145,2.0,2.0,91,0.00,,,0.17,239,Wunderground v.1.15,2013-09-28 18:00:00,
2013-09-28 11:10:00,48.0,45.5,29.65,SSE,147,2.0,2.0,91,0.00,,,0.17,260,Wunderground v.1.15,2013-09-28 18:10:00,
2013-09-28 11:15:00,48.5,46.0,29.64,SE,128,1.0,2.0,91,0.00,,,0.17,225,Wunderground v.1.15,2013-09-28 18:15:00,
2013-09-28 11:20:00,48.6,46.1,29.64,SE,134,1.0,2.0,91,0.00,,,0.17,183,Wunderground v.1.15,2013-09-28 18:20:00,
2013-09-28 11:30:00,48.5,45.7,29.63,SSE,159,2.0,2.0,90,0.00,,,0.17,218,Wunderground v.1.15,2013-09-28 18:30:00,
2013-09-28 11:40:00,48.8,46.0,29.63,SE,132,1.0,3.0,90,0.00,,,0.18,225,Wunderground v.1.15,2013-09-28 18:40:00,
2013-09-28 11:50:00,48.5,45.7,29.63,South,172,2.0,2.0,90,0.00,,,0.18,172,Wunderground v.1.15,2013-09-28 18:50:00,
2013-09-28 12:10:00,48.8,45.7,29.62,South,173,1.0,1.0,89,0.05,,,0.20,216,Wunderground v.1.15,2013-09-28 19:10:00,
2013-09-28 12:20:00,48.8,45.7,29.61,SE,126,2.0,2.0,89,0.00,,,0.20,209,Wunderground v.1.15,2013-09-28 19:20:00,
2013-09-28 12:30:00,49.1,46.0,29.61,SSE,157,1.0,2.0,89,0.00,,,0.20,162,Wunderground v.1.15,2013-09-28 19:30:00,
2013-09-28 12:40:00,49.5,46.4,29.61,SSE,157,0.0,0.0,89,0.00,,,0.20,190,Wunderground v.1.15,2013-09-28 19:40:00,
2013-09-28 12:50:00,49.8,46.7,29.59,SSE,157,0.0,0.0,89,0.00,,,0.20,105,Wunderground v.1.15,2013-09-28 19:50:00,
2013-09-28 13:00:00,50.1,47.0,29.58,SSE,157,0.0,0.0,89,0.00,,,0.20,225,Wunderground v.1.15,2013-09-28 20:00:00,
2013-09-28 13:10:00,50.2,46.8,29.57,SSE,157,0.0,0.0,88,0.00,,,0.21,213,Wunderground v.1.15,2013-09-28 20:10:00,
2013-09-28 13:15:00,50.1,46.7,29.57,SE,146,0.0,0.0,88,0.00,,,0.21,167,Wunderground v.1.15,2013-09-28 20:15:00,
2013-09-28 13:25:00,50.2,46.8,29.57,SE,146,0.0,0.0,88,0.00,,,0.21,135,Wunderground v.1.15,2013-09-28 20:25:00,
2013-09-28 13:35:00,50.4,47.3,29.57,SE,146,0.0,0.0,89,0.00,,,0.21,155,Wunderground v.1.15,2013-09-28 20:35:00,
2013-09-28 13:40:00,50.5,47.4,29.57,SE,146,0.0,0.0,89,0.00,,,0.21,167,Wunderground v.1.15,2013-09-28 20:40:00,
2013-09-28 13:50:00,50.4,47.0,29.56,SSW,209,0.0,0.0,88,0.00,,,0.22,185,Wunderground v.1.15,2013-09-28 20:50:00,
2013-09-28 14:00:00,50.2,46.8,29.56,NW,305,0.0,0.0,88,0.06,,,0.23,163,Wunderground v.1.15,2013-09-28 21:00:00,
2013-09-28 14:10:00,50.4,47.0,29.57,NW,321,0.0,0.0,88,0.08,,,0.24,197,Wunderground v.1.15,2013-09-28 21:10:00,
2013-09-28 14:20:00,49.9,46.5,29.57,NE,42,0.0,0.0,88,0.04,,,0.25,165,Wunderground v.1.15,2013-09-28 21:20:00,
2013-09-28 14:30:00,50.2,46.8,29.57,NE,42,0.0,0.0,88,0.05,,,0.25,155,Wunderground v.1.15,2013-09-28 21:30:00,
2013-09-28 14:40:00,49.9,46.5,29.57,NE,42,0.0,0.0,88,0.05,,,0.25,127,Wunderground v.1.15,2013-09-28 21:40:00,
2013-09-28 14:50:00,49.8,46.4,29.56,West,276,0.0,0.0,88,0.00,,,0.25,72,Wunderground v.1.15,2013-09-28 21:50:00,
2013-09-28 15:00:00,49.1,45.7,29.55,West,275,0.0,0.0,88,0.00,,,0.26,79,Wunderground v.1.15,2013-09-28 22:00:00,
2013-09-28 15:10:00,48.9,45.5,29.53,West,275,0.0,0.0,88,0.05,,,0.27,105,Wunderground v.1.15,2013-09-28 22:10:00,
2013-09-28 15:20:00,49.1,46.0,29.52,West,275,0.0,0.0,89,0.04,,,0.27,114,Wunderground v.1.15,2013-09-28 22:20:00,
2013-09-28 15:30:00,49.4,46.3,29.51,West,275,0.0,0.0,89,0.00,,,0.28,163,Wunderground v.1.15,2013-09-28 22:30:00,
2013-09-28 15:40:00,49.1,45.7,29.50,West,275,0.0,0.0,88,0.00,,,0.28,83,Wunderground v.1.15,2013-09-28 22:40:00,
2013-09-28 15:50:00,49.2,45.8,29.50,West,275,0.0,0.0,88,0.00,,,0.29,60,Wunderground v.1.15,2013-09-28 22:50:00,
2013-09-28 16:00:00,49.2,46.1,29.49,WNW,296,0.0,0.0,89,0.11,,,0.30,95,Wunderground v.1.15,2013-09-28 23:00:00,
2013-09-28 16:10:00,49.4,46.3,29.48,WNW,296,0.0,1.0,89,0.06,,,0.31,130,Wunderground v.1.15,2013-09-28 23:10:00,
2013-09-28 16:15:00,49.4,46.3,29.48,WNW,296,0.0,1.0,89,0.11,,,0.32,123,Wunderground v.1.15,2013-09-28 23:15:00,
2013-09-28 16:25:00,49.4,46.3,29.48,WNW,296,0.0,0.0,89,0.04,,,0.32,74,Wunderground v.1.15,2013-09-28 23:25:00,
2013-09-28 16:30:00,49.2,46.1,29.48,WNW,296,0.0,0.0,89,0.00,,,0.32,62,Wunderground v.1.15,2013-09-28 23:30:00,
2013-09-28 16:40:00,49.2,46.1,29.48,WNW,296,0.0,0.0,89,0.00,,,0.33,16,Wunderground v.1.15,2013-09-28 23:40:00,
2013-09-28 16:50:00,48.8,45.4,29.47,WNW,296,0.0,0.0,88,0.21,,,0.35,18,Wunderground v.1.15,2013-09-28 23:50:00,
2013-09-28 17:00:00,48.5,45.4,29.46,WNW,296,0.0,0.0,89,0.18,,,0.38,39,Wunderground v.1.15,2013-09-29 00:00:00,
2013-09-28 17:05:00,48.3,45.2,29.45,WNW,296,0.0,0.0,89,0.08,,,0.38,63,Wunderground v.1.15,2013-09-29 00:05:00,
2013-09-28 17:15:00,48.2,45.1,29.44,WNW,296,0.0,0.0,89,0.05,,,0.39,12,Wunderground v.1.15,2013-09-29 00:15:00,
2013-09-28 17:25:00,48.2,45.1,29.43,WNW,296,0.0,0.0,89,0.05,,,0.40,14,Wunderground v.1.15,2013-09-29 00:25:00,
2013-09-28 17:35:00,48.0,45.2,29.43,WNW,296,0.0,0.0,90,0.07,,,0.41,9,Wunderground v.1.15,2013-09-29 00:35:00,
2013-09-28 17:45:00,48.0,45.2,29.42,WNW,296,0.0,0.0,90,0.13,,,0.44,12,Wunderground v.1.15,2013-09-29 00:45:00,
2013-09-28 17:55:00,47.9,45.1,29.41,WNW,296,0.0,0.0,90,0.25,,,0.47,12,Wunderground v.1.15,2013-09-29 00:55:00,
2013-09-28 18:00:00,47.9,45.1,29.41,WNW,296,0.0,0.0,90,0.11,,,0.48,11,Wunderground v.1.15,2013-09-29 01:00:00,
2013-09-28 18:10:00,47.9,45.1,29.40,WNW,296,0.0,0.0,90,0.13,,,0.50,0,Wunderground v.1.15,2013-09-29 01:10:00,
2013-09-28 18:20:00,47.7,44.9,29.40,WNW,296,0.0,0.0,90,0.15,,,0.53,0,Wunderground v.1.15,2013-09-29 01:20:00,
2013-09-28 18:30:00,47.4,44.6,29.41,WNW,296,0.0,0.0,90,0.07,,,0.54,0,Wunderground v.1.15,2013-09-29 01:30:00,
2013-09-28 18:40:00,47.3,44.5,29.40,WNW,296,0.0,0.0,90,0.38,,,0.59,0,Wunderground v.1.15,2013-09-29 01:40:00,
2013-09-28 18:45:00,47.3,44.5,29.39,WNW,296,0.0,0.0,90,0.49,,,0.62,0,Wunderground v.1.15,2013-09-29 01:45:00,
2013-09-28 18:55:00,47.0,44.2,29.41,NW,305,0.0,0.0,90,0.36,,,0.67,0,Wunderground v.1.15,2013-09-29 01:55:00,
2013-09-28 19:05:00,47.0,44.5,29.43,NW,305,0.0,0.0,91,0.23,,,0.71,0,Wunderground v.1.15,2013-09-29 02:05:00,
2013-09-28 19:10:00,47.1,44.6,29.41,NW,305,0.0,0.0,91,0.43,,,0.75,0,Wunderground v.1.15,2013-09-29 02:10:00,
2013-09-28 19:15:00,47.1,44.6,29.38,NW,305,0.0,0.0,91,0.31,,,0.78,0,Wunderground v.1.15,2013-09-29 02:15:00,
2013-09-28 19:25:00,47.0,44.5,29.39,NW,305,0.0,1.0,91,0.14,,,0.81,0,Wunderground v.1.15,2013-09-29 02:25:00,
2013-09-28 19:35:00,47.0,44.5,29.42,NW,306,0.0,1.0,91,0.08,,,0.82,0,Wunderground v.1.15,2013-09-29 02:35:00,
2013-09-28 19:40:00,47.0,44.5,29.42,NW,315,0.0,0.0,91,0.05,,,0.82,0,Wunderground v.1.15,2013-09-29 02:40:00,
2013-09-28 19:45:00,47.0,44.5,29.43,NNE,32,0.0,2.0,91,0.04,,,0.83,0,Wunderground v.1.15,2013-09-29 02:45:00,
2013-09-28 19:55:00,47.3,44.8,29.43,NNE,28,0.0,1.0,91,0.07,,,0.84,0,Wunderground v.1.15,2013-09-29 02:55:00,
2013-09-28 20:00:00,47.3,44.8,29.43,NNE,28,0.0,0.0,91,0.08,,,0.84,0,Wunderground v.1.15,2013-09-29 03:00:00,
2013-09-28 20:10:00,47.3,44.8,29.42,NNE,28,0.0,0.0,91,0.06,,,0.85,0,Wunderground v.1.15,2013-09-29 03:10:00,
2013-09-28 20:20:00,47.3,44.8,29.41,NNE,28,0.0,0.0,91,0.05,,,0.86,0,Wunderground v.1.15,2013-09-29 03:20:00,
2013-09-28 20:30:00,47.3,44.8,29.42,NNE,28,0.0,0.0,91,0.10,,,0.88,0,Wunderground v.1.15,2013-09-29 03:30:00,
2013-09-28 20:40:00,47.3,44.8,29.42,NNE,28,0.0,0.0,91,0.05,,,0.88,0,Wunderground v.1.15,2013-09-29 03:40:00,
2013-09-28 20:50:00,47.1,44.9,29.41,NNE,28,0.0,0.0,92,0.00,,,0.89,0,Wunderground v.1.15,2013-09-29 03:50:00,
2013-09-28 21:00:00,47.1,44.9,29.41,NNE,28,0.0,0.0,92,0.00,,,0.89,0,Wunderground v.1.15,2013-09-29 04:00:00,
2013-09-28 21:05:00,47.1,44.9,29.41,NNE,28,0.0,0.0,92,0.00,,,0.89,0,Wunderground v.1.15,2013-09-29 04:05:00,
2013-09-28 21:10:00,47.1,44.9,29.42,NNE,28,0.0,1.0,92,0.00,,,0.89,0,Wunderground v.1.15,2013-09-29 04:10:00,
2013-09-28 21:20:00,47.1,44.9,29.42,NNE,28,0.0,0.0,92,0.00,,,0.89,0,Wunderground v.1.15,2013-09-29 04:20:00,
2013-09-28 21:30:00,47.0,44.8,29.41,NNE,28,0.0,0.0,92,0.00,,,0.89,0,Wunderground v.1.15,2013-09-29 04:30:00,
2013-09-28 21:35:00,47.0,44.8,29.41,NNE,28,0.0,0.0,92,0.00,,,0.89,0,Wunderground v.1.15,2013-09-29 04:35:00,
2013-09-28 21:45:00,46.8,44.6,29.41,NNE,28,0.0,0.0,92,0.00,,,0.89,0,Wunderground v.1.15,2013-09-29 04:45:00,
2013-09-28 21:55:00,46.7,44.5,29.40,SSE,167,0.0,2.0,92,0.00,,,0.90,0,Wunderground v.1.15,2013-09-29 04:55:00,
2013-09-28 22:05:00,46.5,44.3,29.38,SSE,167,0.0,1.0,92,0.00,,,0.90,0,Wunderground v.1.15,2013-09-29 05:05:00,
2013-09-28 22:10:00,46.4,44.2,29.39,SSE,167,0.0,0.0,92,0.00,,,0.90,0,Wunderground v.1.15,2013-09-29 05:10:00,
2013-09-28 22:20:00,46.0,43.8,29.40,SSE,167,0.0,0.0,92,0.00,,,0.90,0,Wunderground v.1.15,2013-09-29 05:20:00,
2013-09-28 22:30:00,45.7,43.5,29.39,SSE,167,0.0,0.0,92,0.00,,,0.90,0,Wunderground v.1.15,2013-09-29 05:30:00,
2013-09-28 22:40:00,45.1,42.9,29.39,SSE,167,0.0,0.0,92,0.00,,,0.90,0,Wunderground v.1.15,2013-09-29 05:40:00,
2013-09-28 22:50:00,44.6,42.1,29.40,SSE,167,0.0,0.0,91,0.00,,,0.90,0,Wunderground v.1.15,2013-09-29 05:50:00,
2013-09-28 23:00:00,44.2,42.0,29.39,SSE,167,0.0,0.0,92,0.00,,,0.90,0,Wunderground v.1.15,2013-09-29 06:00:00,
2013-09-28 23:10:00,44.2,42.0,29.40,SSE,167,0.0,0.0,92,0.00,,,0.90,0,Wunderground v.1.15,2013-09-29 06:10:00,
2013-09-28 23:20:00,43.8,41.6,29.40,SSE,167,0.0,0.0,92,0.00,,,0.90,0,Wunderground v.1.15,2013-09-29 06:20:00,
2013-09-28 23:30:00,43.3,41.1,29.40,SSE,167,0.0,0.0,92,0.00,,,0.90,0,Wunderground v.1.15,2013-09-29 06:30:00,
2013-09-28 23:40:00,43.2,41.0,29.41,SSE,167,0.0,0.0,92,0.00,,,0.90,0,Wunderground v.1.15,2013-09-29 06:40:00,
2013-09-28 23:45:00,43.3,41.1,29.41,SSE,167,0.0,0.0,92,0.00,,,0.90,0,Wunderground v.1.15,2013-09-29 06:45:00,
2013-09-28 23:55:00,43.3,41.1,29.42,SSE,167,0.0,0.0,92,0.00,,,0.90,0,Wunderground v.1.15,2013-09-29 06:55:00,